Inquirer Daily News

Weather

Get conditions and forecasts for any City, State, ZIP code or Country:  
Trenton, NJ
on Sunday, November 11, 2012

Sunday
Previous Day Next Day
Daily Summary
 ActualAverageRecord
Temperature
Mean Temperature °F 47°F  
Max Temperature 67°F 57°F 74°F (2006)
Min Temperature 35°F 38°F 25°F (1973)
Degree Days
Heating Degree Days 14 18  
Month to date heating degree days 247 180  
Since 1 July heating degree days 554 577  
Cooling Degree Days 0 0  
Month to date cooling degree days 0 0  
Year to date cooling degree days 1234 965  
Growing Degree Days1 (Base °F )  
Moisture
Dew Point 42°F   
Average Humidity 73    
Maximum Humidity 100    
Minimum Humidity 45    
Precipitation
Precipitation 0.00 in 0.10 in 1.46 in (1898)
Month to date precipitation 0.36 1.18  
Year to date precipitation 32.41 40.61  
Wind
Wind Speed 3 mph   
Max Wind Speed 10 mph   
Max Gust Speed 14 mph   
Visibility 6 miles   
Events Fog   

Key: T is trace of precipitation, MM is missing value
Source: NWS Daily Summary
Time(EST)TemperatureDew PointHumidity Pressure Visibility Wind DirectionWind SpeedGust SpeedPrecipitationEvents Conditions
12:53 AM 43.0°F 39.0°F 86% 30.40 in 7.0 miles Calm Calm - N/A   Clear
1:53 AM 39.0°F 37.0°F 93% 30.40 in 6.0 miles Calm Calm - N/A   Clear
2:53 AM 41.0°F 37.9°F 89% 30.40 in 5.0 miles Calm Calm - N/A   Clear
3:53 AM 39.0°F 37.9°F 96% 30.40 in 3.0 miles Calm Calm - N/A   Clear
4:53 AM 37.9°F 36.0°F 93% 30.43 in 3.0 miles NNE 3.5 mph - N/A   Clear
5:06 AM 37.4°F 37.4°F 100% 30.44 in 2.5 miles NNE 3.5 mph - N/A   Clear
5:20 AM 39.2°F 39.2°F 100% 30.45 in 1.5 miles NNE 3.5 mph - N/A   Mostly Cloudy
5:37 AM 39.2°F 37.4°F 93% 30.45 in 2.5 miles East 3.5 mph - N/A   Scattered Clouds
5:49 AM 39.2°F 39.2°F 100% 30.45 in 1.5 miles Calm Calm - N/A   Partly Cloudy
5:53 AM 39.9°F 39.0°F 97% 30.43 in 1.0 miles Calm Calm - N/A   Mist
6:00 AM 39.2°F 37.4°F 93% 30.45 in 0.5 miles Calm Calm - N/A Fog Fog
6:53 AM 36.0°F 35.1°F 97% 30.43 in 0.2 miles South 4.6 mph - N/A Fog Fog
7:53 AM 43.0°F 42.1°F 97% 30.45 in 0.2 miles Calm Calm - N/A Fog Fog
9:21 AM 48.2°F 46.4°F 93% 30.49 in 1.8 miles WNW 3.5 mph - N/A   Mostly Cloudy
9:25 AM 48.2°F 46.4°F 93% 30.49 in 3.0 miles WNW 4.6 mph - N/A   Mostly Cloudy
9:39 AM 48.2°F 46.4°F 93% 30.48 in 4.0 miles WSW 3.5 mph - N/A   Partly Cloudy
9:53 AM 48.9°F 46.9°F 93% 30.47 in 5.0 miles SW 3.5 mph - N/A   Clear
10:53 AM 55.9°F 46.9°F 72% 30.46 in 7.0 miles Calm Calm - N/A   Clear
11:53 AM 60.1°F 45.0°F 57% 30.43 in 10.0 miles Variable 3.5 mph - N/A   Clear
12:53 PM 63.0°F 46.0°F 54% 30.42 in 10.0 miles SSW 5.8 mph - N/A   Clear
1:53 PM 66.0°F 45.0°F 47% 30.40 in 10.0 miles SW 4.6 mph - N/A   Clear
2:53 PM 66.9°F 46.0°F 47% 30.40 in 10.0 miles SW 3.5 mph - N/A   Clear
3:53 PM 66.0°F 45.0°F 47% 30.40 in 10.0 miles South 3.5 mph - N/A   Clear
4:53 PM 63.0°F 41.0°F 45% 30.41 in 10.0 miles South 5.8 mph - N/A   Clear
5:53 PM 60.1°F 42.1°F 51% 30.42 in 10.0 miles South 6.9 mph - N/A   Clear
6:53 PM 57.0°F 46.9°F 69% 30.44 in 10.0 miles South 6.9 mph - N/A   Clear
7:53 PM 54.0°F 45.0°F 72% 30.45 in 10.0 miles South 4.6 mph - N/A   Clear
8:53 PM 51.1°F 44.1°F 77% 30.46 in 10.0 miles South 3.5 mph - N/A   Clear
9:53 PM 48.9°F 42.1°F 77% 30.45 in 10.0 miles SSE 4.6 mph - N/A   Clear
10:53 PM 45.0°F 41.0°F 86% 30.45 in 10.0 miles SSE 4.6 mph - N/A   Clear
11:53 PM 46.0°F 43.0°F 89% 30.44 in 8.0 miles Calm Calm - N/A   Clear
Astronomy
Sunrise:06:40 AM (EST) Moon Rise:03:51 AM (EST)11/11
Sunset:04:45 PM (EST) Moon Set:03:07 PM (EST)11/11
Moon Phase
Nov. 11 Nov. 13 Nov. 20 Nov. 28 Dec. 06

Copyright © 2014 The Weather Underground, Inc.